Location: Mexico
(19.4000°N, 99.1500°W)
Time: 22:36:56
(UTC-06:00)

ISS - Pass Details

Date: 15 November 2019
Orbit: 412 x 421 km, 51.6° (Epoch: 12 November)

Event Time Altitude Azimuth Distance (km) Brightness Sun altitude
Exits shadow 05:01:31 15° 34° (NNE) 1,237 -1.2 -24.2°
Maximum altitude 05:02:05 15° 46° (NE) 1,213 -1.1 -24.1°
Drops below altitude 10° 05:04:08 10° 84° (E) 1,488 0.0 -23.6°
Sets 05:06:52 0° 108° (ESE) 2,348 1.5 -23.0°
